�������l�o���
Date,Time,MP-1(��Sv/h),MP-2(��Sv/h),MP-3(��Sv/h),MP-4(��Sv/h),MP-5(��Sv/h),MP-6(��Sv/h),MP-7(��Sv/h),MP-8(��Sv/h),����,����(m/s),���J
2022/10/15,00:00,0.568,0.817,0.526,1.024,0.714,0.335,0.584,0.553,�k�k��,5.6,��
2022/10/15,00:10,0.566,0.817,0.525,1.023,0.715,0.336,0.585,0.552,�k�k��,5.7,��
2022/10/15,00:20,0.568,0.816,0.525,1.024,0.716,0.336,0.583,0.552,�k�k��,5.7,��
2022/10/15,00:30,0.568,0.817,0.525,1.022,0.715,0.337,0.583,0.555,�k�k��,5.2,��
2022/10/15,00:40,0.567,0.816,0.525,1.024,0.714,0.336,0.585,0.554,�k�k��,5.3,��
2022/10/15,00:50,0.566,0.815,0.524,1.021,0.716,0.337,0.584,0.553,�k�k��,4.9,��
2022/10/15,01:00,0.567,0.818,0.524,1.023,0.717,0.335,0.584,0.553,�k�k��,5.2,��
2022/10/15,01:10,0.567,0.816,0.524,1.020,0.716,0.336,0.585,0.551,�k�k��,5.8,��
2022/10/15,01:20,0.567,0.818,0.525,1.023,0.715,0.336,0.585,0.551,�k�k��,5.6,��
2022/10/15,01:30,0.566,0.816,0.526,1.021,0.714,0.337,0.585,0.552,�k�k��,5.8,��
2022/10/15,01:40,0.569,0.816,0.525,1.021,0.714,0.336,0.585,0.552,�k�k��,5.4,��
2022/10/15,01:50,0.566,0.816,0.525,1.022,0.715,0.337,0.584,0.552,�k�k��,5.8,��
2022/10/15,02:00,0.568,0.817,0.526,1.022,0.715,0.336,0.585,0.552,�k�k��,6.0,��
2022/10/15,02:10,0.567,0.817,0.526,1.023,0.716,0.336,0.586,0.554,�k�k��,6.4,��
2022/10/15,02:20,0.566,0.818,0.525,1.023,0.716,0.336,0.584,0.554,�k�k��,7.3,��
2022/10/15,02:30,0.567,0.817,0.524,1.022,0.715,0.335,0.584,0.552,�k�k��,7.3,��
2022/10/15,02:40,0.569,0.817,0.524,1.021,0.715,0.337,0.584,0.555,�k�k��,7.2,��
2022/10/15,02:50,0.567,0.817,0.526,1.022,0.718,0.337,0.585,0.553,�k�k��,6.9,��
2022/10/15,03:00,0.566,0.817,0.526,1.021,0.716,0.337,0.584,0.552,�k�k��,6.6,��
2022/10/15,03:10,0.568,0.817,0.525,1.023,0.716,0.336,0.584,0.552,�k�k��,6.6,��
2022/10/15,03:20,0.567,0.818,0.524,1.023,0.716,0.336,0.585,0.554,�k�k��,6.1,��
2022/10/15,03:30,0.567,0.817,0.525,1.023,0.716,0.337,0.585,0.554,�k�k��,6.4,��
2022/10/15,03:40,0.567,0.818,0.526,1.023,0.714,0.336,0.584,0.553,�k�k��,5.7,��
2022/10/15,03:50,0.566,0.818,0.524,1.022,0.715,0.336,0.585,0.552,�k�k��,6.3,��
2022/10/15,04:00,0.567,0.817,0.525,1.021,0.715,0.337,0.584,0.552,�k�k��,7.0,��
2022/10/15,04:10,0.568,0.818,0.524,1.024,0.716,0.336,0.584,0.553,�k�k��,6.4,��
2022/10/15,04:20,0.567,0.819,0.526,1.021,0.718,0.334,0.584,0.553,�k�k��,6.4,��
2022/10/15,04:30,0.568,0.817,0.524,1.023,0.714,0.336,0.583,0.552,�k�k��,5.9,��
2022/10/15,04:40,0.568,0.818,0.524,1.020,0.714,0.336,0.585,0.553,�k�k��,6.3,��
2022/10/15,04:50,0.566,0.817,0.525,1.022,0.714,0.337,0.584,0.552,�k�k��,5.9,��
2022/10/15,05:00,0.567,0.817,0.525,1.023,0.715,0.334,0.585,0.552,�k�k��,5.8,��
2022/10/15,05:10,0.566,0.817,0.525,1.021,0.715,0.335,0.583,0.552,�k�k��,6.4,��
2022/10/15,05:20,0.567,0.817,0.524,1.024,0.714,0.336,0.585,0.554,�k�k��,5.4,��
2022/10/15,05:30,0.567,0.817,0.525,1.023,0.715,0.336,0.585,0.553,�k�k��,5.6,��
2022/10/15,05:40,0.567,0.818,0.526,1.022,0.715,0.337,0.584,0.552,�k�k��,5.6,��
2022/10/15,05:50,0.568,0.819,0.525,1.021,0.713,0.336,0.585,0.553,�k�k��,4.1,��
2022/10/15,06:00,0.568,0.816,0.525,1.023,0.716,0.337,0.585,0.553,�k�k��,4.1,��
2022/10/15,06:10,0.567,0.816,0.525,1.021,0.715,0.335,0.585,0.553,�k�k��,4.1,��
2022/10/15,06:20,0.567,0.816,0.524,1.022,0.716,0.336,0.585,0.553,�k�k��,4.5,��
2022/10/15,06:30,0.567,0.817,0.525,1.021,0.715,0.335,0.584,0.553,�k�k��,5.1,��
2022/10/15,06:40,0.566,0.817,0.523,1.021,0.715,0.336,0.584,0.552,�k�k��,5.7,��
2022/10/15,06:50,0.567,0.819,0.525,1.023,0.715,0.336,0.585,0.552,�k�k��,5.0,��
2022/10/15,07:00,0.566,0.817,0.525,1.021,0.715,0.335,0.585,0.553,�k�k��,4.8,��
2022/10/15,07:10,0.568,0.816,0.526,1.023,0.716,0.336,0.586,0.553,�k�k��,4.5,��
2022/10/15,07:20,0.566,0.818,0.525,1.022,0.715,0.337,0.586,0.551,�k�k��,4.7,��
2022/10/15,07:30,0.567,0.817,0.526,1.021,0.714,0.336,0.585,0.553,�k�k��,5.0,��
2022/10/15,07:40,0.569,0.817,0.525,1.023,0.715,0.336,0.585,0.554,�k�k��,3.5,��
2022/10/15,07:50,0.568,0.819,0.525,1.024,0.715,0.336,0.584,0.552,�k�k��,4.0,��
2022/10/15,08:00,0.569,0.817,0.524,1.023,0.715,0.335,0.584,0.552,�k�k��,3.6,��
2022/10/15,08:10,0.567,0.817,0.525,1.021,0.714,0.336,0.583,0.554,�k�k��,4.3,��
2022/10/15,08:20,0.566,0.820,0.526,1.024,0.716,0.335,0.584,0.553,�k�k��,3.6,��
2022/10/15,08:30,0.567,0.818,0.524,1.021,0.716,0.335,0.584,0.553,�k�k��,3.2,��
2022/10/15,08:40,0.567,0.816,0.526,1.024,0.717,0.336,0.584,0.553,�k,2.3,��
2022/10/15,08:50,0.569,0.816,0.525,1.023,0.715,0.335,0.584,0.552,�k�k��,2.8,��
2022/10/15,09:00,0.566,0.817,0.525,1.023,0.715,0.336,0.584,0.551,�k�k��,3.2,��
2022/10/15,09:10,0.565,0.816,0.525,1.025,0.714,0.335,0.585,0.552,�k,2.9,��
2022/10/15,09:20,0.567,0.815,0.526,1.024,0.715,0.334,0.584,0.551,�k,3.4,��
2022/10/15,09:30,0.566,0.815,0.525,1.023,0.715,0.335,0.584,0.550,�k,2.9,��
2022/10/15,09:40,0.564,0.815,0.524,1.025,0.715,0.335,0.585,0.551,�k�k��,3.6,��
2022/10/15,09:50,0.566,0.815,0.526,1.022,0.715,0.334,0.585,0.552,�k,3.6,��
2022/10/15,10:00,0.567,0.816,0.525,1.024,0.714,0.335,0.586,0.550,�k�k��,4.4,��
2022/10/15,10:10,0.567,0.814,0.524,1.021,0.715,0.334,0.585,0.549,�k�k��,4.2,��
2022/10/15,10:20,0.567,0.817,0.523,1.025,0.714,0.335,0.586,0.551,�k�k��,3.8,��
2022/10/15,10:30,0.567,0.816,0.525,1.024,0.714,0.336,0.585,0.551,�k�k��,4.3,��
2022/10/15,10:40,0.568,0.818,0.524,1.024,0.715,0.335,0.586,0.551,�k,4.1,��
2022/10/15,10:50,0.565,0.817,0.523,1.025,0.713,0.334,0.584,0.550,�k�k��,3.9,��
2022/10/15,11:00,0.566,0.816,0.525,1.023,0.715,0.334,0.584,0.549,�k�k��,3.6,��
2022/10/15,11:10,0.570,0.819,0.524,1.025,0.713,0.336,0.584,0.551,�k�k��,4.4,��
2022/10/15,11:20,0.567,0.817,0.524,1.024,0.715,0.334,0.583,0.549,�k�k��,4.9,��
2022/10/15,11:30,0.568,0.815,0.524,1.027,0.715,0.335,0.585,0.551,�k�k��,4.5,��
2022/10/15,11:40,0.569,0.815,0.524,1.026,0.716,0.335,0.584,0.551,�k�k��,4.2,��
2022/10/15,11:50,0.567,0.817,0.523,1.027,0.717,0.336,0.585,0.551,�k�k��,5.1,��
2022/10/15,12:00,0.570,0.818,0.524,1.024,0.716,0.336,0.585,0.550,�k�k��,4.8,��
2022/10/15,12:10,0.567,0.818,0.524,1.023,0.716,0.335,0.586,0.551,�k��,4.4,��
2022/10/15,12:20,0.567,0.817,0.523,1.026,0.716,0.336,0.585,0.552,�k�k��,4.8,��
2022/10/15,12:30,0.569,0.818,0.524,1.026,0.716,0.337,0.584,0.551,�k�k��,4.5,��
2022/10/15,12:40,0.569,0.817,0.523,1.022,0.715,0.335,0.584,0.551,�k�k��,4.2,��
2022/10/15,12:50,0.569,0.819,0.525,1.025,0.717,0.336,0.584,0.551,�k�k��,4.4,��
2022/10/15,13:00,0.569,0.818,0.522,1.026,0.717,0.335,0.584,0.550,�k�k��,4.2,��
2022/10/15,13:10,0.568,0.817,0.523,1.025,0.716,0.336,0.585,0.551,�k�k��,3.9,��
2022/10/15,13:20,0.568,0.820,0.525,1.026,0.718,0.335,0.586,0.551,�k�k��,4.3,��
2022/10/15,13:30,0.569,0.818,0.525,1.026,0.715,0.336,0.587,0.552,�k�k��,3.9,��
2022/10/15,13:40,0.568,0.819,0.525,1.026,0.717,0.335,0.584,0.552,�k�k��,4.0,��
2022/10/15,13:50,0.568,0.816,0.525,1.027,0.718,0.335,0.586,0.552,�k��,3.9,��
2022/10/15,14:00,0.570,0.818,0.524,1.025,0.718,0.336,0.585,0.551,�k�k��,3.4,��
2022/10/15,14:10,0.568,0.818,0.526,1.026,0.716,0.335,0.585,0.550,�k�k��,2.9,��
2022/10/15,14:20,0.568,0.819,0.525,1.027,0.718,0.337,0.585,0.551,�k�k��,3.4,��
2022/10/15,14:30,0.568,0.817,0.523,1.026,0.716,0.335,0.584,0.552,�k�k��,3.8,��
2022/10/15,14:40,0.568,0.819,0.525,1.025,0.717,0.335,0.586,0.551,�k�k��,3.0,��
2022/10/15,14:50,0.570,0.817,0.524,1.027,0.718,0.335,0.584,0.552,�k�k��,2.6,��
2022/10/15,15:00,0.568,0.817,0.526,1.027,0.716,0.334,0.584,0.551,�k�k��,2.3,��
2022/10/15,15:10,0.568,0.818,0.522,1.025,0.715,0.334,0.584,0.552,�k�k��,1.7,��
2022/10/15,15:20,0.568,0.817,0.525,1.027,0.716,0.336,0.585,0.551,�k�k��,1.9,��
2022/10/15,15:30,0.568,0.819,0.524,1.026,0.716,0.335,0.585,0.552,�k��,2.0,��
2022/10/15,15:40,0.568,0.821,0.523,1.025,0.716,0.336,0.584,0.552,�k�k��,1.9,��
2022/10/15,15:50,0.569,0.818,0.524,1.025,0.717,0.337,0.584,0.551,�k��,1.9,��
2022/10/15,16:00,0.567,0.818,0.526,1.027,0.717,0.336,0.585,0.552,���k��,1.4,��
2022/10/15,16:10,0.568,0.821,0.523,1.026,0.718,0.335,0.585,0.552,�k��,1.4,��
2022/10/15,16:20,0.568,0.818,0.524,1.026,0.718,0.335,0.585,0.553,�k�k��,0.8,��
2022/10/15,16:30,0.567,0.819,0.523,1.027,0.716,0.335,0.585,0.553,�k�k��,1.2,��
2022/10/15,16:40,0.569,0.820,0.523,1.025,0.715,0.335,0.586,0.554,�k,0.9,��
2022/10/15,16:50,0.567,0.818,0.523,1.027,0.718,0.338,0.586,0.554,�k�k��,0.6,��
2022/10/15,17:00,0.568,0.819,0.523,1.027,0.719,0.336,0.586,0.553,�k��,0.6,��
2022/10/15,17:10,0.566,0.821,0.523,1.025,0.719,0.336,0.586,0.554,�k��,0.8,��
2022/10/15,17:20,0.567,0.820,0.526,1.025,0.719,0.335,0.587,0.555,���k��,0.8,��
2022/10/15,17:30,0.569,0.820,0.525,1.025,0.718,0.337,0.586,0.553,���k��,0.9,��
2022/10/15,17:40,0.570,0.822,0.528,1.026,0.719,0.336,0.586,0.554,��,0.9,��
2022/10/15,17:50,0.569,0.820,0.526,1.025,0.719,0.336,0.586,0.552,-,CALM,��
2022/10/15,18:00,0.568,0.820,0.525,1.025,0.720,0.337,0.585,0.553,-,CALM,��
2022/10/15,18:10,0.569,0.820,0.526,1.027,0.718,0.337,0.588,0.553,���쓌,0.9,��
2022/10/15,18:20,0.569,0.823,0.526,1.025,0.720,0.337,0.586,0.552,�쓌,0.9,��
2022/10/15,18:30,0.569,0.821,0.526,1.025,0.719,0.336,0.586,0.552,�쓌,0.6,��
2022/10/15,18:40,0.569,0.820,0.525,1.028,0.718,0.336,0.586,0.554,��,0.9,��
2022/10/15,18:50,0.570,0.821,0.525,1.025,0.720,0.335,0.585,0.553,���k��,0.6,��
2022/10/15,19:00,0.569,0.820,0.525,1.026,0.720,0.336,0.585,0.553,���쐼,0.6,��
2022/10/15,19:10,0.569,0.822,0.526,1.026,0.719,0.336,0.586,0.552,��쐼,0.9,��
2022/10/15,19:20,0.569,0.820,0.527,1.026,0.719,0.337,0.587,0.553,�쐼,0.6,��
2022/10/15,19:30,0.568,0.820,0.528,1.026,0.720,0.336,0.587,0.552,-,CALM,��
2022/10/15,19:40,0.570,0.820,0.526,1.026,0.718,0.336,0.586,0.552,-,CALM,��
2022/10/15,19:50,0.568,0.820,0.526,1.027,0.719,0.337,0.586,0.554,-,CALM,��
2022/10/15,20:00,0.570,0.822,0.525,1.027,0.720,0.337,0.586,0.553,-,CALM,��
2022/10/15,20:10,0.569,0.821,0.527,1.026,0.718,0.338,0.585,0.553,-,CALM,��
2022/10/15,20:20,0.569,0.821,0.526,1.026,0.719,0.337,0.585,0.552,�k�k��,0.8,��
2022/10/15,20:30,0.568,0.822,0.527,1.026,0.720,0.338,0.585,0.553,�k�k��,0.6,��
2022/10/15,20:40,0.568,0.819,0.526,1.025,0.720,0.337,0.587,0.553,�k��,1.1,��
2022/10/15,20:50,0.568,0.821,0.524,1.027,0.718,0.336,0.586,0.552,-,CALM,��
2022/10/15,21:00,0.567,0.820,0.524,1.025,0.718,0.335,0.587,0.552,-,CALM,��
2022/10/15,21:10,0.567,0.821,0.526,1.025,0.720,0.337,0.586,0.553,-,CALM,��
2022/10/15,21:20,0.569,0.822,0.527,1.026,0.718,0.336,0.588,0.553,�k,0.9,��
2022/10/15,21:30,0.567,0.822,0.525,1.026,0.718,0.336,0.586,0.552,�k,0.8,��
2022/10/15,21:40,0.569,0.820,0.525,1.026,0.719,0.337,0.586,0.551,�k,0.9,��
2022/10/15,21:50,0.568,0.820,0.525,1.024,0.718,0.337,0.586,0.552,�k,1.1,��
2022/10/15,22:00,0.568,0.819,0.525,1.024,0.718,0.336,0.583,0.552,�k�k��,1.7,��
2022/10/15,22:10,0.569,0.819,0.526,1.026,0.719,0.336,0.584,0.553,�k�k��,1.2,��
2022/10/15,22:20,0.569,0.820,0.525,1.026,0.717,0.336,0.587,0.552,�k�k��,1.4,��
2022/10/15,22:30,0.567,0.820,0.526,1.026,0.718,0.336,0.585,0.552,�k�k��,2.0,��
2022/10/15,22:40,0.569,0.818,0.525,1.024,0.719,0.336,0.585,0.551,�k��,2.5,��
2022/10/15,22:50,0.570,0.819,0.526,1.026,0.718,0.335,0.587,0.552,�k��,2.2,��
2022/10/15,23:00,0.567,0.821,0.525,1.027,0.717,0.336,0.584,0.553,�k�k��,1.7,��
2022/10/15,23:10,0.567,0.821,0.525,1.026,0.720,0.338,0.585,0.553,�k��,2.0,��
2022/10/15,23:20,0.567,0.821,0.524,1.027,0.718,0.336,0.584,0.553,�k��,2.3,��
2022/10/15,23:30,0.569,0.822,0.525,1.026,0.717,0.336,0.585,0.552,�k��,2.0,��
2022/10/15,23:40,0.568,0.821,0.525,1.026,0.720,0.336,0.584,0.551,�k��,2.0,��
2022/10/15,23:50,0.569,0.820,0.525,1.025,0.719,0.337,0.585,0.553,�k��,2.5,��
